Regional Weather Roundup
Issued by NWS

Home | Current Version | Previous Version | Graphics & Text | Print | Product List | Glossary On
Versions: 1 2 3 4 5 6 7 8 9 10 11 12 13 14 15 16 17 18 19 20 21 22 23 24 25 26 27 28 29 30 31 32 33 34 35 36 37 38 39 40 41 42 43 44 45 46 47 48 49 50
000
ASUS43 KTOP 302108
RWRKS

WEATHER ROUNDUP FOR KANSAS
NATIONAL WEATHER SERVICE GOODLAND KS
400 PM CDT MON MAR 30 2015

NOTE:  "FAIR" INDICATES FEW OR NO CLOUDS BELOW 12,000 FEET WITH NO
SIGNIFICANT WEATHER AND/OR OBSTRUCTIONS TO VISIBILITY.

KSZ001>006-013>018-027>032-041>047-302200-
NORTHWEST KANSAS

CITY           SKY/WX    TMP DP  RH WIND       PRES   REMARKS
GOODLAND       SUNNY     78  17  10 N14G23    30.02F
HAYS           SUNNY     84  32  15 W18       29.93F
HILL CITY      SUNNY     83  22  10 NW15      29.94F
RUSSELL        SUNNY     82  33  17 SW16G22   29.92F
$$

KSZ061>065-074>080-084>089-302200-
SOUTHWEST KANSAS

CITY           SKY/WX    TMP DP  RH WIND       PRES   REMARKS
DODGE CITY     MOSUNNY   82  30  15 SW22G30   29.98F
ELKHART          N/A     77  32  19 W10         N/A
GARDEN CITY    MOSUNNY   80  30  16 W7        29.98F
GREAT BEND     SUNNY     79  37  22 S23G31    29.96F
LIBERAL        SUNNY     81  36  19 SW23G30   30.01F
PRATT          SUNNY     79  32  18 SW17G25   30.01F
$$

KSZ066>073-081>083-090>101-302200-
SOUTHEAST KANSAS

CITY           SKY/WX    TMP DP  RH WIND       PRES   REMARKS
CHANUTE        SUNNY     71  31  22 SW16      30.07F
COFFEYVILLE    SUNNY     72  35  25 S7        30.06F
HUTCHINSON     SUNNY     78  36  21 SW18G33   30.01F
MEDICINE LODGE   N/A     79  35  20 S13G28    29.99F
NEWTON         SUNNY     73  37  27 S21       30.03F
PARSONS        SUNNY     73  32  22 S10       30.07F
WICHITA INTL   MOSUNNY   76  37  24 S20G30    30.01F
WICHITA JABRA  SUNNY     75  37  25 S17       30.01F
WICHITA MCCONL SUNNY     76  40  27 S15       30.02F
WINFIELD       SUNNY     75  39  27 SW16G23   30.05F
$$

KSZ007>012-019>026-033>040-048>060-102>105-302200-
NORTHEAST KANSAS

CITY           SKY/WX    TMP DP  RH WIND       PRES   REMARKS
CONCORDIA      SUNNY     79  34  19 SW16G31   29.94F
EMPORIA        SUNNY     74  28  18 S15       30.01F
LAWRENCE       SUNNY     74  29  19 SW15      30.01F
MANHATTAN      SUNNY     77  32  19 SW18G28   29.97F
MARYSVILLE     SUNNY     75  32  20 SW12G23   29.95F
OLATHE IND     SUNNY     71  29  21 SW18G26   30.03F
OLATHE EXE     SUNNY     71  30  21 SW12G22   30.02F
SALINA         SUNNY     78  36  21 S20G29    29.98F
TOPEKA BILLARD SUNNY     74  25  16 S17G23    30.00F
TOPEKA FORBES  SUNNY     76  24  14 S14G23    30.00F
$$



USA.gov is the U.S. government's official web portal to all federal, state and local government web resources and services.